Back to catalog

STARLINK-34722

AliveCommunicationsSSO
NORAD 64851·PAYLOAD·🇺🇸 United States

Launched Jul 19, 2025 from Vandenberg Space Force Base

Loading…

Next Passes (next 24 hours)

TLE

FreshSource: CelesTrak SupGP

Epoch: Sep 14, 2026, 14:52 UTC

1 64851C 25152K   26257.61993056 -.00015914  00000+0 -49405-3 0  2573
2 64851  97.2827 108.2620 0002424  74.2930 264.4852 15.33443378    10

Track STARLINK-34722 in real time with AllMySat

Download on the App Store